Wind_Speed
27 25 24 24 25 25 23 22 22 21 21 20 19 18 17 17 16 15 15 15 14 13 12 11 10 9 8 7 7 7 7 6 6 5 5 5 5 6 6 6 7 6
28 27 26 25 25 25 24 23 23 23 22 21 19 19 19 19 17 16 16 15 15 14 12 11 11 10 9 8 7 7 6 6 6 5 5 5 4 5 6 6 6 6
29 29 28 27 26 24 23 23 23 23 23 22 21 20 21 21 19 18 17 16 15 14 13 12 11 10 10 9 8 7 7 6 6 6 6 5 5 4 5 5 6 6
27 28 28 28 27 26 24 24 23 24 23 23 23 22 22 22 21 20 19 17 16 14 13 12 11 11 10 9 8 8 7 7 7 7 6 6 6 5 4 5 5 6
25 26 27 28 28 27 27 25 24 24 23 22 23 23 23 22 21 21 20 19 17 15 14 13 13 12 10 10 9 8 7 7 7 7 8 7 7 6 5 5 5 6
24 25 26 27 28 28 29 27 25 24 24 22 22 23 23 23 22 21 21 20 19 18 16 15 14 13 12 11 10 9 8 7 7 7 8 9 9 8 7 6 6 6
24 25 25 25 27 28 29 28 27 25 24 23 23 23 23 23 23 22 21 21 20 19 18 17 15 14 13 12 11 10 9 8 8 7 8 9 10 10 9 8 7 7
25 24 25 25 26 27 28 28 28 27 25 25 24 23 23 23 22 22 22 22 21 20 19 18 18 16 14 13 12 11 10 10 9 9 9 9 10 11 11 11 10 9
26 25 25 26 26 27 27 27 28 27 26 26 26 24 24 24 23 21 21 22 23 22 20 19 19 17 16 14 12 11 11 11 11 10 10 10 10 11 12 13 12 11
28 27 27 27 27 27 27 27 27 27 27 27 26 26 24 23 23 21 20 21 23 24 22 20 19 18 17 15 13 12 12 12 12 11 11 11 11 11 11 13 14 14
29 29 28 28 27 27 27 26 27 27 27 27 26 26 25 23 23 22 21 20 21 23 23 22 20 18 17 16 14 13 12 13 13 12 11 12 11 11 11 12 13 15
30 30 30 29 28 27 27 26 27 27 27 27 26 26 26 25 23 23 22 21 20 20 22 22 21 19 17 16 16 15 14 14 14 14 13 12 12 11 11 11 12 13
29 29 29 29 28 27 27 26 27 27 26 26 26 26 27 26 25 24 23 22 21 21 21 21 22 22 20 19 17 17 16 15 15 15 14 13 12 11 12 12 11 12
26 27 28 28 28 27 27 27 27 27 26 26 26 26 27 26 25 24 23 23 23 22 22 21 22 23 22 21 19 18 17 17 16 16 15 15 14 13 12 12 12 11
22 25 26 27 28 28 28 28 28 27 27 26 26 27 26 26 25 25 24 24 23 24 24 24 24 23 23 21 20 19 18 18 17 16 16 16 15 14 14 13 13 12
21 23 24 26 27 28 28 28 28 27 27 27 27 26 26 26 26 25 24 24 24 24 25 26 26 25 23 22 20 20 19 19 18 18 17 17 17 16 16 15 14 13
22 22 23 24 25 26 28 28 28 28 28 28 27 27 27 27 27 27 25 23 23 24 25 26 26 25 23 22 21 21 20 20 20 19 19 19 18 18 17 16 15 14
22 22 22 23 23 24 26 28 28 28 28 29 28 28 28 28 28 27 26 24 23 23 25 26 25 24 23 22 21 21 21 21 21 21 20 20 20 19 18 17 16 15
23 23 22 22 22 23 25 27 29 29 29 29 29 27 27 28 28 28 27 25 23 22 23 24 25 24 23 22 22 22 22 22 22 22 22 21 20 20 19 18 17 15
26 24 23 22 22 23 24 26 28 28 28 28 28 27 27 28 28 28 27 26 24 22 21 22 24 24 24 23 22 22 23 23 23 23 22 22 21 20 19 18 17 15
29 27 25 23 23 23 25 26 27 27 27 27 27 27 27 26 26 27 28 27 26 23 21 21 22 23 23 23 22 21 22 23 23 23 23 23 21 20 19 18 16 15
30 29 28 26 24 24 25 26 26 26 26 26 26 27 27 26 26 27 27 28 27 25 23 22 22 23 23 23 22 20 20 21 22 23 24 23 21 20 19 18 16 15
28 30 29 28 27 26 25 25 25 26 26 26 25 26 26 26 26 26 26 27 27 27 26 24 23 23 23 23 22 22 21 21 21 21 22 21 20 19 19 18 17 16
27 28 30 30 30 28 27 26 25 26 26 26 26 25 24 24 24 24 25 26 27 28 27 25 24 23 22 22 22 22 22 22 21 21 20 20 19 19 20 19 18 17
28 28 29 30 31 30 29 28 27 27 27 27 27 26 25 24 24 24 24 25 26 27 27 27 26 24 23 22 22 23 23 23 23 23 22 21 20 20 20 20 20 18
32 31 30 30 31 31 31 31 30 29 28 28 28 28 27 27 25 24 24 24 25 26 27 28 27 26 25 24 23 23 24 24 25 25 24 23 22 22 22 22 22 20
Wind_Direction
221 222 220 216 216 219 218 217 216 216 216 214 211 208 204 204 199 193 191 191 190 191 192 191 188 188 187 180 172 169 168 158 150 144 136 135 136 139 149 156 154 156
221 223 223 222 220 219 219 219 218 217 217 217 216 213 210 209 206 198 196 197 195 193 194 194 193 195 196 193 187 181 179 171 163 159 153 150 146 145 152 159 165 167
222 223 224 225 225 223 221 220 220 219 218 217 217 218 216 214 212 204 200 202 200 195 196 197 197 198 200 200 198 193 191 187 181 178 173 168 161 157 159 160 170 175
222 224 225 226 227 228 226 223 222 221 220 217 216 218 219 219 217 212 205 204 205 201 198 198 200 201 202 204 205 202 200 199 195 191 188 184 180 173 171 166 172 179
221 223 225 226 227 228 229 226 223 222 223 221 217 217 219 221 221 220 214 208 207 208 205 201 200 203 205 206 209 211 211 208 203 200 198 197 194 190 185 180 177 182
219 221 223 225 226 227 229 229 226 224 225 224 221 218 219 220 220 221 221 216 211 210 211 209 205 204 206 208 210 214 219 218 213 209 205 202 202 201 197 190 185 185
217 219 220 222 225 226 228 229 228 226 225 225 225 222 221 222 220 217 220 223 219 214 212 213 213 210 209 210 212 216 222 228 228 224 214 205 202 203 202 198 197 195
218 219 219 220 223 225 226 226 227 226 224 224 225 224 223 225 223 217 215 220 224 222 216 214 215 216 216 216 216 219 226 233 236 235 228 216 206 204 204 203 203 201
217 219 221 221 222 223 224 225 225 225 224 223 225 225 224 225 226 223 216 215 220 225 223 219 216 216 219 221 221 224 230 236 238 236 234 230 220 211 208 206 207 207
216 218 221 222 222 222 222 223 223 224 224 223 224 225 224 224 226 228 223 217 217 221 225 225 222 217 217 221 224 226 232 239 241 238 234 235 234 227 219 214 212 211
215 217 220 222 224 223 223 222 222 223 224 224 224 224 225 223 223 226 227 224 220 219 223 227 228 225 219 218 222 226 233 241 245 243 237 235 237 238 236 229 222 218
215 216 219 221 223 225 224 224 223 223 223 224 224 224 224 223 221 221 223 225 225 223 222 224 229 231 227 222 222 225 232 238 244 247 245 241 240 242 244 241 234 227
216 217 219 220 223 225 225 225 225 225 223 223 224 224 224 224 223 220 219 220 223 224 224 223 226 230 232 229 227 226 230 235 239 244 247 247 246 246 248 248 244 237
217 217 219 221 222 224 225 227 227 227 225 223 224 225 225 225 224 223 221 219 219 221 224 224 224 227 230 231 230 229 230 233 234 238 243 247 249 250 250 251 250 246
215 217 218 220 222 223 224 227 229 229 228 225 224 225 227 228 227 226 224 222 219 219 220 224 225 225 226 227 229 231 232 234 234 234 237 242 247 250 252 253 252 249
212 216 217 218 222 223 224 226 228 230 230 227 224 224 226 229 230 230 227 223 222 221 221 223 225 225 224 224 225 228 230 232 232 231 233 236 241 246 250 253 255 253
210 213 216 217 220 223 225 227 228 229 230 229 226 224 224 227 230 232 231 226 224 224 224 225 225 226 226 224 224 225 226 228 229 228 228 231 236 241 245 250 254 254
211 212 214 216 218 222 225 227 229 230 229 229 228 225 223 226 229 233 234 231 226 223 224 226 227 227 227 227 226 224 225 227 228 227 226 228 232 237 241 246 250 251
212 214 214 215 217 220 223 227 230 232 231 230 230 227 225 226 228 232 235 234 227 222 222 225 227 228 228 228 228 226 226 227 229 230 229 228 231 235 239 243 247 249
215 214 214 216 216 218 222 225 229 233 233 233 232 230 227 225 226 228 232 235 232 225 220 220 223 226 228 228 227 227 227 228 231 233 233 232 233 235 239 243 247 251
215 213 213 215 216 218 222 225 228 232 234 234 233 232 230 227 226 226 228 233 236 232 225 219 217 221 226 228 227 226 227 230 232 234 236 236 236 237 240 243 246 250
210 209 210 213 215 218 221 223 226 230 232 234 234 233 232 229 227 226 225 229 234 236 233 225 219 218 222 226 228 228 229 231 233 235 237 239 240 242 244 244 246 248
211 208 208 211 214 218 221 223 226 228 230 233 234 234 234 233 230 228 226 225 229 235 236 232 226 221 220 222 225 227 230 231 233 236 239 240 241 243 245 246 245 245
216 211 209 211 214 218 222 223 226 228 228 231 234 235 237 236 235 233 230 227 227 231 236 237 234 228 223 218 217 220 225 229 233 237 239 240 242 244 246 247 245 243
219 217 215 213 215 219 222 224 226 228 228 231 234 236 237 237 237 236 234 232 229 229 233 237 238 236 229 222 217 217 220 224 229 232 235 237 242 247 250 250 248 246
218 220 220 218 219 221 224 226 227 228 228 229 232 235 236 237 237 236 235 234 232 230 231 233 237 238 236 232 228 225 224 226 228 231 233 235 240 245 250 252 251 250
Height
3213 3215 3217 3219 3220 3222 3224 3226 3227 3229 3230 3232 3233 3235 3236 3237 3238 3239 3240 3241 3242 3243 3244 3245 3246 3247 3247 3248 3249 3249 3250 3251 3251 3251 3252 3252 3252 3252 3253 3253 3253 3253
3212 3213 3215 3217 3219 3220 3222 3224 3226 3227 3229 3231 3232 3234 3235 3236 3237 3238 3239 3240 3241 3242 3243 3245 3245 3246 3247 3247 3248 3249 3250 3250 3251 3251 3252 3252 3252 3252 3253 3253 3253 3253
3210 3211 3213 3215 3217 3219 3221 3222 3224 3225 3227 3229 3231 3232 3233 3234 3236 3237 3238 3239 3240 3241 3243 3244 3245 3246 3246 3247 3248 3248 3249 3250 3250 3251 3251 3252 3252 3252 3252 3253 3253 3253
3208 3209 3211 3213 3215 3217 3219 3221 3222 3223 3225 3227 3229 3230 3231 3232 3234 3235 3237 3238 3239 3240 3242 3243 3244 3245 3246 3246 3247 3248 3248 3249 3250 3250 3251 3251 3252 3252 3252 3252 3253 3253
3206 3208 3209 3211 3213 3215 3217 3218 3221 3222 3223 3225 3227 3228 3229 3231 3232 3233 3235 3237 3238 3239 3240 3242 3243 3244 3245 3245 3246 3247 3248 3248 3249 3250 3250 3251 3251 3251 3252 3252 3253 3253
3204 3206 3207 3209 3211 3213 3214 3216 3219 3221 3222 3223 3225 3226 3227 3229 3230 3232 3233 3234 3236 3238 3239 3240 3241 3243 3243 3244 3245 3246 3247 3247 3248 3249 3249 3250 3250 3251 3251 3252 3252 3253
3201 3203 3205 3207 3209 3211 3212 3214 3216 3218 3220 3222 3223 3224 3225 3226 3228 3230 3231 3232 3234 3236 3237 3239 3240 3241 3242 3243 3244 3245 3246 3246 3247 3248 3248 3249 3249 3250 3250 3251 3252 3252
3198 3201 3203 3204 3206 3208 3210 3212 3214 3216 3218 3220 3220 3222 3223 3224 3225 3227 3229 3230 3231 3233 3235 3237 3238 3239 3240 3241 3242 3243 3244 3245 3246 3246 3247 3247 3248 3249 3249 3250 3251 3251
3195 3198 3200 3202 3203 3205 3207 3209 3211 3214 3216 3217 3218 3220 3221 3222 3223 3225 3227 3228 3229 3231 3232 3234 3236 3237 3238 3240 3241 3241 3242 3243 3244 3245 3245 3246 3247 3247 3248 3249 3249 3250
3192 3194 3197 3199 3201 3202 3205 3207 3209 3211 3213 3215 3216 3217 3218 3220 3221 3222 3224 3226 3227 3229 3230 3231 3233 3235 3237 3238 3239 3240 3241 3241 3242 3243 3244 3244 3245 3245 3246 3247 3248 3249
3188 3191 3193 3195 3198 3200 3202 3205 3207 3209 3210 3212 3214 3215 3216 3218 3219 3220 3222 3223 3225 3227 3228 3230 3231 3233 3235 3236 3238 3238 3239 3239 3240 3241 3242 3243 3243 3244 3244 3245 3246 3247
3184 3187 3189 3192 3195 3197 3200 3202 3204 3206 3208 3209 3211 3212 3214 3215 3216 3218 3219 3220 3222 3224 3226 3228 3229 3231 3232 3234 3236 3237 3237 3238 3238 3239 3240 3241 3241 3242 3242 3243 3244 3245
3182 3183 3186 3189 3192 3195 3198 3200 3201 3203 3205 3207 3209 3210 3211 3212 3213 3215 3217 3218 3220 3221 3223 3225 3227 3228 3230 3231 3233 3234 3235 3236 3237 3237 3238 3239 3239 3240 3240 3241 3242 3243
3179 3182 3184 3187 3189 3192 3195 3197 3199 3200 3202 3204 3206 3207 3208 3210 3211 3213 3214 3216 3217 3219 3220 3222 3224 3225 3227 3228 3230 3232 3233 3234 3235 3236 3236 3236 3237 3238 3238 3239 3239 3240
3178 3180 3182 3184 3187 3189 3191 3194 3196 3198 3200 3202 3203 3205 3206 3208 3209 3210 3212 3213 3215 3216 3217 3219 3220 3222 3224 3226 3228 3229 3231 3232 3233 3233 3234 3234 3235 3235 3236 3236 3237 3238
3176 3178 3180 3182 3184 3186 3189 3191 3193 3195 3197 3199 3200 3202 3204 3205 3206 3207 3209 3210 3212 3214 3215 3216 3217 3219 3221 3223 3225 3226 3228 3229 3230 3231 3231 3232 3232 3233 3233 3234 3234 3235
3174 3176 3178 3179 3181 3184 3186 3189 3191 3192 3194 3196 3198 3200 3201 3202 3203 3204 3206 3208 3210 3211 3212 3213 3215 3216 3218 3220 3222 3223 3224 3225 3227 3228 3228 3229 3230 3230 3231 3231 3232 3233
3172 3174 3176 3177 3179 3182 3184 3187 3188 3190 3191 3193 3194 3197 3198 3200 3201 3201 3203 3205 3207 3208 3210 3211 3212 3214 3216 3218 3219 3220 3221 3222 3223 3224 3225 3226 3227 3227 3228 3229 3230 3230
3171 3172 3174 3175 3177 3179 3182 3184 3186 3187 3189 3190 3192 3194 3196 3197 3198 3199 3200 3201 3203 3205 3207 3208 3210 3212 3214 3215 3216 3218 3219 3219 3220 3221 3222 3223 3224 3225 3225 3226 3227 3228
3169 3171 3172 3173 3175 3177 3180 3182 3183 3185 3186 3188 3190 3191 3193 3194 3195 3196 3197 3198 3200 3202 3204 3206 3207 3209 3211 3212 3214 3215 3216 3217 3217 3218 3219 3220 3221 3222 3223 3223 3224 3225
3165 3167 3169 3171 3173 3175 3177 3179 3181 3182 3184 3186 3187 3188 3189 3191 3193 3194 3195 3195 3197 3199 3201 3202 3204 3206 3208 3209 3211 3212 3213 3214 3214 3215 3216 3217 3218 3219 3220 3221 3222 3222
3161 3163 3165 3168 3170 3172 3174 3176 3178 3180 3181 3183 3184 3185 3187 3188 3190 3191 3192 3193 3194 3195 3197 3199 3201 3203 3205 3206 3208 3210 3211 3211 3211 3212 3213 3214 3215 3216 3217 3218 3219 3220
3159 3160 3161 3164 3166 3169 3171 3173 3175 3177 3179 3180 3181 3182 3184 3185 3187 3188 3189 3191 3191 3192 3193 3196 3198 3200 3202 3204 3205 3206 3207 3208 3209 3209 3210 3211 3213 3214 3215 3216 3216 3217
3157 3157 3158 3160 3162 3165 3167 3170 3172 3174 3176 3178 3179 3180 3181 3182 3184 3186 3187 3188 3189 3190 3191 3192 3194 3196 3199 3201 3202 3203 3204 3205 3206 3207 3207 3208 3210 3211 3212 3213 3214 3215
3155 3155 3156 3157 3158 3161 3164 3167 3169 3171 3174 3175 3176 3177 3179 3180 3181 3182 3183 3185 3186 3187 3188 3189 3191 3193 3195 3197 3199 3200 3201 3202 3203 3204 3205 3206 3207 3208 3209 3209 3210 3212
3151 3152 3152 3153 3155 3158 3161 3164 3166 3168 3170 3172 3173 3174 3175 3177 3178 3179 3180 3181 3183 3184 3185 3187 3188 3189 3191 3193 3195 3196 3197 3199 3199 3200 3202 3203 3204 3205 3206 3206 3207 3208